Погода в Малых Алабухах 1-ых

Россия / Воронежская область     51°32′09″N   42°09′27″E
темп.,
°C
ветер,
м/с
пор.,
м/с
влажн.,
%
обл.,
%
осадки,
мм/ч
давл.,
гПа
погр.,
м
20 сентября, пн
пн2000:00+12юв81752100 0.4 1015778
03:00+9вюв81686100 4.3 1014648
06:00+9юв81792100 5.4 1013744
09:00+9юв71492100 10.2 1014771
12:00+9вюв71487100 0.8 1014646
15:00+10вюв71385100 0.8 1014627
18:00+9вюв71284100 0.0 1014541
21:00+10вюв6128378 0.6 1014499
21 сентября, вт
вт2100:00+8вюв4109095 0.3 1014305
03:00+9юв369297 0.5 1013200
06:00+8юв3595100 0.3 101397
09:00+11юв2285100 0.3 1013259
12:00+13ююз1181100 0.0 1013302
15:00+14зюз1174100 0.0 1012257
18:00+12зюз1179100 0.0 101111
21:00+11юв1179100 0.0 101110
22 сентября, ср
ср2200:00+11ююв2386100 0.0 101065
03:00+10ююв379486 1.5 1010161
06:00+8ююз489868 0.1 1010237
09:00+10юз688499 0.1 1011610
12:00+9зюз5880100 0.1 1012708
15:00+13зюз365392 0.1 10121647
18:00+11юз2263100 0.0 101433
21:00+10з2268100 0.0 101549
23 сентября, чт
чт2300:00+9с2374100 0.0 101569
03:00+9св2275100 0.0 101559
06:00+9всв2273100 0.0 101537
09:00+11св1167100 0.0 1015107
12:00+13ссз2160100 0.0 1014631
15:00+14сз325799 0.0 1013754
18:00+11зсз1265100 0.0 101320
21:00+9ссз2270100 0.0 101318
24 сентября, пт
пт2400:00+9ссз2269100 0.0 101320
03:00+8св2273100 0.0 101226
06:00+8всв1290100 0.0 101277
09:00+9св2381100 0.1 1011446
12:00+10св2273100 0.0 1010505
15:00+13юз025945 0.0 10091025
18:00+12ю2358100 0.0 100886
21:00+10ю346690 0.0 1008104